[[{"header":{"parameterUnit":"m.s-1","parameterCategory":1,"la1":30.2991,"la2":30.254,"lo1":-89.0895,"lo2":-89.0444,"dy":0.0017,"dx":0.0017,"nx":28,"ny":28,"refTime":"2023-10-17T21:00:00:Z","depth":0,"parameterNumber":2,"parameterNumberName":"U-component_of_WINDS"},"data":[0,0,0,0,0,0,0,0,0,0,0,0,0,0,0,0,0,0,0,0,0,0,0,0,0,0,0,0,0,0,0,0,0,0,0,0,0,0,0,0,0,0,0,0,0,0,0,0,0,0,0,0,0,0,0,0,0,0,-1.6076,-1.6078,0,-1.6253,-1.6255,-1.6257,-1.6335,-1.6335,-1.6335,-1.6335,-1.6513,-1.6518,-1.6523,0,0,0,0,0,0,0,0,0,0,0,0,0,-1.5805,-1.5809,-1.6076,-1.6078,-1.6081,-1.6253,-1.6255,-1.6258,-1.6336,-1.6335,-1.6335,-1.6335,-1.6512,-1.6517,-1.6523,0,0,0,0,0,0,0,0,0,0,0,0,0,-1.5946,-1.5811,-1.6076,-1.614,-1.6148,-1.6252,-1.6255,-1.6258,-1.6336,-1.6335,-1.6335,-1.6335,-1.651,-1.6517,-1.6524,-1.6577,0,0,-1.6547,-1.655,0,0,0,0,0,0,0,0,-1.5938,-1.5956,-1.6129,-1.6136,-1.6145,-1.6272,-1.6225,-1.6365,-1.6336,-1.6264,-1.6335,-1.6334,-1.6433,-1.6447,-1.6481,-1.6585,-1.6593,-1.6547,-1.6552,-1.6555,-1.6557,0,0,0,0,0,0,0,-1.5928,-1.5949,-1.6146,-1.6131,-1.6141,-1.616,-1.618,-1.6252,-1.6348,-1.627,-1.6277,-1.6297,-1.6437,-1.6473,-1.6485,-1.6595,-1.6547,-1.6554,-1.6558,-1.6561,-1.6754,-1.6755,0,0,0,0,0,0,-1.5908,-1.594,-1.614,-1.6151,-1.6038,-1.6165,-1.6187,-1.6231,-1.6348,-1.6365,-1.6297,-1.63,-1.6461,-1.6476,-1.6492,-1.6562,-1.6555,-1.6562,-1.6566,-1.6753,-1.6754,-1.6755,0,0,0,0,0,0,-1.5902,-1.5925,-1.6133,-1.6048,-1.6076,-1.617,-1.6219,-1.6235,-1.6271,-1.6368,-1.6385,-1.6316,-1.6461,-1.6481,-1.6556,-1.657,-1.6565,-1.6572,-1.6753,-1.6754,-1.6754,-1.6702,0,0,0,0,0,0,-1.5894,-1.5922,-1.5943,-1.6047,-1.608,-1.6194,-1.622,-1.6239,-1.6284,-1.6289,-1.639,-1.6406,-1.6462,-1.6544,-1.6563,-1.658,-1.6578,-1.6752,-1.6753,-1.6754,-1.6703,-1.6702,-1.67,0,0,0,0,0,-1.5884,-1.5921,-1.5944,-1.5968,-1.6108,-1.6195,-1.6213,-1.6278,-1.6285,-1.6307,-1.6369,-1.6403,-1.6565,-1.6551,-1.6573,-1.6592,-1.6751,-1.6753,-1.6754,-1.6704,-1.6702,-1.67,0,0,0,0,0,0,-1.5815,-1.5936,-1.5963,-1.6035,-1.6104,-1.6208,-1.6237,-1.6273,-1.6341,-1.6343,-1.642,-1.6442,-1.651,-1.6559,-1.6541,-1.665,-1.6661,-1.6667,-1.6616,-1.6614,-1.6613,-1.6599,-1.6584,0,0,0,0,0,-1.5808,-1.5869,-1.5971,-1.6025,-1.6058,-1.6142,-1.6182,-1.6226,-1.63,-1.633,-1.6398,-1.6468,-1.6535,-1.6577,-1.6644,-1.6711,-1.6735,-1.6735,-1.6733,-1.6732,-1.6736,-1.6776,-1.6778,-1.676,-1.676,-1.676,0,0,-1.5794,-1.5868,-1.5901,-1.6013,-1.6072,-1.6133,-1.6166,-1.6229,-1.6275,-1.6339,-1.6414,-1.6466,-1.655,-1.6621,-1.6656,-1.6664,-1.6746,-1.6734,-1.6731,-1.6737,-1.6778,-1.6779,-1.6781,-1.6761,-1.6761,-1.676,0,0,-1.5801,-1.5862,-1.5915,-1.5974,-1.6063,-1.6119,-1.6131,-1.6231,-1.6268,-1.6345,-1.6395,-1.645,-1.6564,-1.6622,-1.6667,-1.6697,-1.6732,-1.6717,-1.6708,-1.6746,-1.6748,-1.6749,-1.6761,-1.6764,-1.6721,-1.6721,-1.6721,0,-1.5772,-1.5867,-1.5936,-1.5998,-1.6045,-1.6108,-1.6161,-1.6215,-1.6321,-1.6352,-1.636,-1.6506,-1.6566,-1.6652,-1.666,-1.6694,-1.6711,-1.6705,-1.6742,-1.6744,-1.6747,-1.6759,-1.6763,-1.6718,-1.6719,-1.6719,-1.6719,0,-1.5828,-1.5893,-1.5924,-1.6027,-1.6078,-1.6135,-1.6213,-1.6256,-1.6296,-1.6351,-1.6429,-1.6504,-1.6588,-1.6612,-1.6651,-1.6705,-1.6707,-1.6727,-1.674,-1.6745,-1.6758,-1.6763,-1.6715,-1.6716,-1.6717,-1.6717,0,0,-1.5794,-1.5936,-1.5947,-1.5995,-1.6099,-1.615,-1.621,-1.6294,-1.633,-1.6401,-1.6454,-1.6549,-1.657,-1.662,-1.6666,-1.67,-1.6721,-1.6717,-1.672,-1.6715,-1.6785,-1.6769,-1.6773,-1.6744,-1.6745,-1.6746,-1.6778,0,-1.5815,-1.5926,-1.5992,-1.6076,-1.6137,-1.6198,-1.6251,-1.632,-1.6374,-1.6433,-1.6492,-1.6559,-1.658,-1.6611,-1.6647,-1.671,-1.6736,-1.6709,-1.6793,-1.6796,-1.677,-1.678,-1.6763,-1.6789,-1.6783,-1.6784,-1.6785,0,-1.5854,-1.5926,-1.6017,-1.6116,-1.6144,-1.619,-1.6272,-1.6329,-1.6409,-1.6446,-1.6503,-1.655,-1.6616,-1.6623,-1.6715,-1.6696,-1.6735,-1.6771,-1.6774,-1.6784,-1.679,-1.679,-1.6799,-1.6802,-1.6793,-1.6793,-1.6792,0,-1.5821,-1.5941,-1.6011,-1.605,-1.6167,-1.6198,-1.6248,-1.6328,-1.6375,-1.6447,-1.6478,-1.6556,-1.6599,-1.6658,-1.6725,-1.6725,-1.6811,-1.6824,-1.6843,-1.6841,-1.6858,-1.6856,-1.6873,-1.6883,-1.6882,-1.6882,-1.6882,0,-1.5838,-1.5891,-1.5998,-1.6041,-1.6102,-1.6177,-1.6236,-1.6291,-1.6362,-1.6417,-1.6474,-1.6524,-1.661,-1.6671,-1.6723,-1.6792,-1.6811,-1.6842,-1.6855,-1.6837,-1.6833,-1.6863,-1.6863,-1.6884,-1.6883,-1.6883,-1.6883,0,-1.5811,-1.5885,-1.5965,-1.607,-1.6098,-1.6139,-1.6229,-1.6273,-1.633,-1.6398,-1.6419,-1.6508,-1.6583,-1.6656,-1.6755,-1.6791,-1.6859,-1.6877,-1.6832,-1.6839,-1.6854,-1.6852,-1.6891,-1.69,-1.6903,-1.6903,-1.6903,0,-1.5817,-1.5859,-1.5969,-1.6011,-1.606,-1.6126,-1.6174,-1.625,-1.6297,-1.6393,-1.6426,-1.6505,-1.6573,-1.6689,-1.6762,-1.6839,-1.6859,-1.6868,-1.6871,-1.6852,-1.686,-1.6857,-1.6862,-1.6866,-1.6865,-1.6865,-1.6865,0,-1.5819,-1.5854,-1.5922,-1.6003,-1.6059,-1.6126,-1.6196,-1.6226,-1.6315,-1.6366,-1.6444,-1.6496,-1.6599,-1.6677,-1.6763,-1.6814,-1.6854,-1.6863,-1.6872,-1.6853,-1.6826,-1.6841,-1.6827,-1.6862,-1.6862,-1.6862,-1.6862,-1.6863,-1.5809,-1.585,-1.5935,-1.6009,-1.6069,-1.6133,-1.618,-1.6244,-1.631,-1.64,-1.6441,-1.6519,-1.66,-1.672,-1.6771,-1.6834,-1.6844,-1.6856,-1.6859,-1.6861,-1.6857,-1.6816,-1.685,-1.685,-1.685,-1.685,-1.685,0,-1.5815,-1.5873,-1.594,-1.6036,-1.6094,-1.6128,-1.6207,-1.6254,-1.6322,-1.6395,-1.646,-1.655,-1.6627,-1.6707,-1.6788,-1.6823,-1.6843,-1.6841,-1.6839,-1.6851,-1.6843,-1.6828,-1.6823,-1.6823,-1.6823,-1.6823,-1.6823,-1.6823,-1.5825,-1.5897,-1.5942,-1.6044,-1.6102,-1.618,-1.6222,-1.6281,-1.634,-1.6438,-1.6502,-1.6555,-1.6631,-1.6718,-1.679,-1.6812,-1.6839,-1.6832,-1.6858,-1.6849,-1.6851,-1.6853,-1.6839,-1.6837,-1.6837,-1.6861,-1.6861,-1.6861]},{"header":{"parameterUnit":"m.s-1","parameterCategory":1,"la1":30.2991,"la2":30.254,"lo1":-89.0895,"lo2":-89.0444,"dy":0.0017,"dx":0.0017,"nx":28,"ny":28,"refTime":"2023-10-17T21:00:00:Z","depth":0,"parameterNumber":3,"parameterNumberName":"V-component_of_WINDS"},"data":[0,0,0,0,0,0,0,0,0,0,0,0,0,0,0,0,0,0,0,0,0,0,0,0,0,0,0,0,0,0,0,0,0,0,0,0,0,0,0,0,0,0,0,0,0,0,0,0,0,0,0,0,0,0,0,0,0,0,-0.9054,-0.9053,0,-0.8987,-0.8986,-0.8985,-0.8979,-0.898,-0.8981,-0.8981,-0.8915,-0.8913,-0.891,0,0,0,0,0,0,0,0,0,0,0,0,0,-0.9179,-0.9177,-0.9054,-0.9053,-0.9052,-0.8987,-0.8986,-0.8985,-0.8979,-0.898,-0.8981,-0.8982,-0.8916,-0.8913,-0.891,0,0,0,0,0,0,0,0,0,0,0,0,0,-0.912,-0.9176,-0.9054,-0.9042,-0.904,-0.8987,-0.8986,-0.8985,-0.8979,-0.898,-0.8981,-0.8982,-0.8917,-0.8913,-0.8909,-0.8865,0,0,-0.8898,-0.8897,0,0,0,0,0,0,0,0,-0.9123,-0.9115,-0.9044,-0.9042,-0.904,-0.8992,-0.9006,-0.8945,-0.8979,-0.9002,-0.8981,-0.8983,-0.894,-0.8934,-0.892,-0.8862,-0.8859,-0.8898,-0.8896,-0.8894,-0.8893,0,0,0,0,0,0,0,-0.9127,-0.9118,-0.9028,-0.9043,-0.9041,-0.904,-0.9032,-0.8994,-0.8966,-0.9,-0.9,-0.8992,-0.8939,-0.8923,-0.8918,-0.8858,-0.8898,-0.8895,-0.8893,-0.8891,-0.876,-0.8758,0,0,0,0,0,0,-0.9134,-0.9122,-0.903,-0.9026,-0.9085,-0.9037,-0.9028,-0.9007,-0.8966,-0.8961,-0.8991,-0.8992,-0.8929,-0.8922,-0.8916,-0.886,-0.8894,-0.8891,-0.8889,-0.8761,-0.8759,-0.8758,0,0,0,0,0,0,-0.9136,-0.9125,-0.9032,-0.9073,-0.9061,-0.9033,-0.9009,-0.9005,-0.8989,-0.8959,-0.8954,-0.8979,-0.8929,-0.8921,-0.8877,-0.8857,-0.8889,-0.8886,-0.8763,-0.8761,-0.8759,-0.8749,0,0,0,0,0,0,-0.914,-0.9126,-0.9109,-0.9073,-0.9059,-0.8995,-0.9008,-0.9003,-0.8982,-0.8983,-0.8947,-0.8942,-0.893,-0.8883,-0.8874,-0.8853,-0.8883,-0.8764,-0.8762,-0.8759,-0.8751,-0.8747,-0.8743,0,0,0,0,0,-0.9144,-0.911,-0.9108,-0.9097,-0.9037,-0.8994,-0.8986,-0.8971,-0.8981,-0.8963,-0.8944,-0.8944,-0.8861,-0.8878,-0.8868,-0.8846,-0.8765,-0.8762,-0.876,-0.8752,-0.8747,-0.8743,0,0,0,0,0,0,-0.9146,-0.9105,-0.9103,-0.9056,-0.9028,-0.8993,-0.897,-0.8967,-0.8937,-0.8938,-0.8922,-0.8914,-0.8871,-0.8854,-0.8874,-0.88,-0.8814,-0.8809,-0.8812,-0.8807,-0.8804,-0.8808,-0.888,0,0,0,0,0,-0.9141,-0.9109,-0.9075,-0.9037,-0.9023,-0.8999,-0.8979,-0.897,-0.8941,-0.893,-0.8907,-0.888,-0.8848,-0.8827,-0.8796,-0.8748,-0.874,-0.8728,-0.8724,-0.8721,-0.8717,-0.8689,-0.8683,-0.8748,-0.8748,-0.8749,0,0,-0.913,-0.9104,-0.9085,-0.9036,-0.9014,-0.898,-0.8989,-0.8954,-0.8929,-0.8925,-0.8882,-0.8864,-0.8833,-0.8786,-0.8765,-0.8771,-0.8697,-0.8718,-0.8716,-0.8713,-0.8685,-0.8679,-0.8674,-0.8746,-0.8747,-0.8747,0,0,-0.9093,-0.907,-0.9035,-0.9011,-0.8977,-0.8961,-0.8952,-0.8917,-0.8905,-0.8861,-0.8856,-0.8827,-0.8772,-0.8749,-0.873,-0.8682,-0.8681,-0.8673,-0.8653,-0.8626,-0.8621,-0.8616,-0.8598,-0.8592,-0.8669,-0.8669,-0.8669,0,-0.9084,-0.9033,-0.9017,-0.8981,-0.896,-0.8953,-0.8916,-0.8895,-0.8853,-0.8838,-0.8845,-0.8775,-0.8753,-0.8701,-0.8689,-0.8674,-0.8664,-0.8677,-0.8623,-0.8618,-0.8613,-0.8596,-0.8589,-0.8668,-0.8668,-0.8668,-0.8668,0,-0.9023,-0.8988,-0.8964,-0.8921,-0.8897,-0.8861,-0.8839,-0.8817,-0.881,-0.8793,-0.8748,-0.8721,-0.8684,-0.8671,-0.8664,-0.8617,-0.8621,-0.8626,-0.864,-0.8607,-0.8589,-0.8583,-0.8667,-0.8667,-0.8667,-0.8667,0,0,-0.8986,-0.8933,-0.8924,-0.8904,-0.8864,-0.8837,-0.8801,-0.8762,-0.8743,-0.8714,-0.8682,-0.8635,-0.8639,-0.8617,-0.8608,-0.8584,-0.8546,-0.8591,-0.859,-0.8583,-0.8491,-0.8486,-0.8479,-0.8545,-0.8543,-0.8542,-0.8493,0,-0.8944,-0.8877,-0.8861,-0.8805,-0.8771,-0.8763,-0.8731,-0.8704,-0.8687,-0.8656,-0.8639,-0.8605,-0.8613,-0.8599,-0.8576,-0.8556,-0.8527,-0.8559,-0.8515,-0.8514,-0.8522,-0.847,-0.8466,-0.842,-0.8486,-0.8485,-0.8484,0,-0.8885,-0.8852,-0.8792,-0.8754,-0.874,-0.8712,-0.8674,-0.8645,-0.8614,-0.8603,-0.8578,-0.857,-0.8532,-0.8548,-0.8495,-0.8517,-0.8498,-0.8486,-0.8484,-0.8478,-0.8496,-0.8462,-0.8406,-0.8398,-0.8474,-0.8475,-0.8475,0,-0.8862,-0.8803,-0.8759,-0.8742,-0.8697,-0.8677,-0.8658,-0.8627,-0.8605,-0.8573,-0.8558,-0.8523,-0.8503,-0.8476,-0.8459,-0.8472,-0.8406,-0.8421,-0.8396,-0.8396,-0.8382,-0.8383,-0.832,-0.8372,-0.8372,-0.8372,-0.8372,0,-0.8815,-0.8779,-0.8747,-0.872,-0.8678,-0.866,-0.8619,-0.86,-0.8572,-0.8541,-0.8533,-0.8504,-0.8484,-0.8452,-0.8439,-0.8396,-0.8388,-0.8378,-0.8374,-0.8378,-0.8379,-0.8364,-0.8367,-0.837,-0.837,-0.8371,-0.8371,0,-0.8782,-0.876,-0.8711,-0.8672,-0.8662,-0.8632,-0.86,-0.8573,-0.8555,-0.8516,-0.8506,-0.8479,-0.8441,-0.8421,-0.8374,-0.8365,-0.8317,-0.8316,-0.8327,-0.8325,-0.83,-0.8302,-0.8226,-0.8214,-0.8274,-0.8274,-0.8273,0,-0.8754,-0.8725,-0.8682,-0.866,-0.864,-0.8605,-0.8581,-0.8562,-0.8537,-0.8498,-0.8476,-0.8437,-0.8405,-0.8345,-0.8321,-0.8285,-0.8283,-0.8258,-0.8277,-0.8281,-0.8281,-0.8282,-0.8279,-0.8255,-0.8254,-0.8254,-0.8253,0,-0.8704,-0.8694,-0.866,-0.8621,-0.8592,-0.8561,-0.8531,-0.8513,-0.8489,-0.8462,-0.8422,-0.8397,-0.8349,-0.831,-0.8272,-0.8253,-0.8249,-0.8247,-0.8239,-0.8242,-0.8249,-0.8243,-0.8316,-0.8249,-0.825,-0.825,-0.825,-0.825,-0.8672,-0.8645,-0.861,-0.8571,-0.8546,-0.8517,-0.8489,-0.8467,-0.8433,-0.8391,-0.8382,-0.8339,-0.8307,-0.8255,-0.8235,-0.8202,-0.8207,-0.8196,-0.8192,-0.819,-0.8188,-0.8255,-0.8195,-0.8195,-0.8195,-0.8195,-0.8195,0,-0.8621,-0.8597,-0.8562,-0.8518,-0.8488,-0.8485,-0.8451,-0.8426,-0.8388,-0.8358,-0.8325,-0.8279,-0.8241,-0.8214,-0.8176,-0.8154,-0.8151,-0.8145,-0.8146,-0.8141,-0.8186,-0.8196,-0.8148,-0.8148,-0.8148,-0.8148,-0.8148,-0.8148,-0.859,-0.8544,-0.8529,-0.847,-0.8447,-0.8404,-0.8385,-0.8358,-0.8333,-0.8281,-0.8249,-0.8231,-0.8202,-0.8161,-0.8126,-0.8119,-0.8105,-0.8098,-0.8091,-0.8133,-0.8138,-0.8143,-0.8152,-0.8095,-0.8095,-0.8048,-0.8048,-0.8047]}]]